Terminal Aerodrome Forecast
Issued by NWS

Home | Current Version | Previous Version | Text Only | Print | Product List | Glossary On
Versions: 1 2 3 4 5 6 7 8 9 10 11 12 13 14 15 16 17 18 19 20 21 22
000
FTUS43 KAPX 240500
TAFMBL
TAF
KMBL 240520Z 2406/2506 10003KT P6SM SCT120 BKN180
     FM241400 13008G16KT P6SM VCSH BKN060
     FM242000 11013G25KT P6SM SCT060 OVC120
     FM250100 10010G17KT P6SM OVC100 WS020/15035KT
     FM250400 10009G16KT P6SM -RA OVC040 WS020/16040KT
      AMD LTD TO CLD VIS AND WIND=

USA.gov is the U.S. government's official web portal to all federal, state and local government web resources and services.